임상 · 실습 | 널스스토리

임상 · 실습

|인증된 간호사, 간호학생만을 위한 공간
임상 · 실습
제목 글쓴이 날짜 조회
공지2 ❄️밝은성모안과 널스스토리 제휴이벤트❄️ 널스스토리 님 25.11.051269
피하주사, SQ (2) 베스트 100SQ 19.03.30 2073
신경과 SBP target (2) 베스트 75A 19.03.30 1861
피검사결과 0.01% 정도는 차이날 수 있나요… (1) 베스트 34ㅇㅇ 19.03.30 921
유니인퓨전 베스트 29에쎈3 19.03.30 746
OS 병동인데요 (1) 베스트 42원썬 19.03.30 1427
c-line femoral (1) 베스트 41dl 19.03.30 1249
답답해여 ㅜㅠ (4) 베스트 63아... 19.03.30 1674
산부인과 (1) 베스트 52자궁절제술 19.03.30 1170
신규 중증도 낮은 종병 다니는데 ...배우는게… (7) 베스트 41신규 19.03.30 3061
I/O에서 + 많이 되는 환자 h/s 수액 속… (1) 베스트 75ㅇㅇ 19.03.30 1570
암막블라인드 추천받아요~ 베스트 35오호라 19.03.30 814
Kideny 안좋은 환자들은 조영제 사용하는 … (8) 베스트 57핑쿠쿠 19.03.30 2923
Melena (1) 베스트 91구분 19.03.30 1801
볼루스 (1) 베스트 62 19.03.30 1494
검사단위 어떻게 읽는지 알려주시면 감사합니다.… (3) 베스트 13유나리옹 19.03.30 1607
acl pcl 파열시 베스트 57. 19.03.29 827
사간당 20cc주는거면 3초에한방울인가요? (4) 베스트 33익명 19.03.29 2774
네뷸라이저 마스크 베스트 37신규 19.03.29 783
수상이라는 뜻 (4) 베스트 41유니 19.03.29 1745
IV air ㅠㅠ (3) 베스트 11Air 19.03.29 1727
Podol (1) 베스트 50ㅠㅠ 19.03.29 1000
장기기증 받는사람 의학용어 (1) 베스트 50신규 19.03.29 1003
temporary pacemaker요 베스트 72뭐할까 19.03.29 1038
Hemorrhage환자 머리 (1) 베스트 46 19.03.29 1474
SLED 의학용어 (1) 베스트 50ㅠㅠ 19.03.29 1664
A-line malfunction된건 어떻게 … (2) 베스트 63ㅇㅇ 19.03.29 1717
응사하고 싶다 (1) 베스트 51. 19.03.29 1938
신생아전해질불균형 위험성 사정할때 어떤걸 봐야… (1) 베스트 27큰일이야큰일 19.03.29 1020
케모포트 chemoport 헤파린콕 스마트 콕… 베스트 70헤파린콕 19.03.29 1212
면역글로불린 (1) 베스트 91믹스 19.03.29 1465
ward pt 베스트 37lullu 19.03.29 1022
페르디핀 (1) 베스트 61. 19.03.29 1660
HD 시 conductive.? (1) 베스트 60간호사 19.03.29 946
라식스 2ml 앰플같은거 걍 바로 iv로 넣어… (2) 베스트 50..... 19.03.29 2713
C.S. , CO , PF 의미좀... 베스트 11푸헤 19.03.29 1014
마약성진통제 베스트 24render 19.03.29 799
LE 가 무슨 뜻인가요? (2) 베스트 30nues08 19.03.28 1580
3way 환자 인젝할때요 (3) 베스트 33익명 19.03.28 2034
Rt. supine은 무슨체위인가요.. (1) 베스트 27발불떨 19.03.28 1745
열떠서 케토신쓰고 나면 f/u 보통 몇분후 하… (2) 베스트 100 19.03.28 1470
telemetry (2) 베스트 29이것이 19.03.28 1330
3way 채혈 질문있어요 ! (3) 베스트 33Sss 19.03.28 2705
☆☆☆혈액배양검사☆☆☆ 베스트 61냔냠 19.03.28 1416
스피치 캐뉼라가 혹시 뭔지 아실까요... (2) 베스트 68ㅠㅠ 19.03.28 1484
약물계산문제쫌봐주세요 ㅠ (1) 베스트 35약물 19.03.28 1110


무료 상담게시판